Regional Weather Roundup
Issued by NWS

Home | Current Version | Previous Version | Graphics & Text | Print | Product List | Glossary On
Versions: 1 2 3 4 5 6 7 8 9 10 11 12 13 14 15 16 17 18 19 20 21 22 23 24 25 26 27 28 29 30 31 32 33 34 35 36 37 38 39 40 41 42 43 44 45 46 47 48 49 50
000
ASUS43 KBIS 261820
RWRND

NORTH DAKOTA REGIONAL WEATHER ROUNDUP
NATIONAL WEATHER SERVICE BISMARCK ND
1200 PM CST WED NOV 26 2014

NOTE: "FAIR" INDICATES FEW OR NO CLOUDS BELOW 12,000 FEET WITH NO
SIGNIFICANT WEATHER AND/OR OBSTRUCTIONS TO VISIBILITY.


NDZ001>003-009>011-017-261900-
NORTHWEST NORTH DAKOTA

CITY           SKY/WX    TMP DP  RH WIND       PRES   REMARKS
WILLISTON      CLOUDY    11   4  73 N12       30.38R WCI  -3
6HR MIN TEMP:   9; 6HR MAX TEMP:  14; 6HR PCP: TRACE;

MINOT          PTSUNNY    4  -3  73 N6        30.40R WCI  -7
MINOT AFB      CLOUDY     2  -3  79 N6        30.40S WCI  -9
$$

NDZ018>021-031>035-040>046-261900-
SOUTHWEST NORTH DAKOTA

CITY           SKY/WX    TMP DP  RH WIND       PRES   REMARKS
BISMARCK       CLOUDY    11   3  70 CALM      30.38S
6HR MIN TEMP:   6; 6HR MAX TEMP:  11; 6HR PCP:  0.02;

DICKINSON      CLOUDY    19  13  77 N6        30.26S WCI  11
GARRISON         N/A      8   2  76 N5        30.36S WCI   0
6HR MIN TEMP:   6; 6HR MAX TEMP:   8; 6HR PCP:  0.01;

HETTINGER ARPT CLOUDY    24  19  81 NE7       30.26R HAZE    WCI  16
$$

NDZ004>008-012>016-024-026-027-054-261900-
NORTHEAST NORTH DAKOTA

CITY           SKY/WX    TMP DP  RH WIND       PRES   REMARKS
GRAND FORKS    FAIR       2  -6  69 N15       30.45S WCI -17
GRND FRKS AFB  FAIR       1  -8  66 N9        30.45S WCI -14
DEVILS LAKE    FAIR       0 -15  50 N10       30.38F WCI -17
$$

NDZ022-023-025-028>030-036>039-047>053-261900-
SOUTHEAST NORTH DAKOTA

CITY           SKY/WX    TMP DP  RH WIND       PRES   REMARKS
FARGO          PTSUNNY    5  -5  63 N21       30.39F WCI -16
6HR MIN TEMP:   2; 6HR MAX TEMP:   8;

JAMESTOWN      CLOUDY     4  -4  69 N9        30.37S WCI -10
$$



USA.gov is the U.S. government's official web portal to all federal, state and local government web resources and services.